Regional Weather Roundup
Issued by NWS Sterling, VA

Home | Current Version | Previous Version | Text Only | Print | Product List | Glossary Off
Versions: 1 2 3 4 5 6 7 8 9 10 11 12 13 14 15 16 17 18 19 20 21 22 23 24 25 26 27

000
ASUS41 KLWX 220911
RWRLWX

REGIONAL WEATHER ROUNDUP
NATIONAL WEATHER SERVICE BALTIMORE MD/WASHINGTON DC
500 AM EDT THU JUN 22 2017

Note: "FAIR" indicates few or no clouds below 12,000 feet
with no significant weather and/or obstructions to visibility.
 TC=TEMPERATURE CELSIUS

 * =Non NWS site. Station does not report precipitation (e.g. rain,
    snow, etc.), thunder, or fog.

DCZ001-MDZ009-015-VAZ040>042-051-053>054-221000-
WASHINGTON METRO

CITY           SKY/WX    TMP DP  RH WIND       PRES   REMARKS
WASHINGTON NAT MOCLDY    76  70  82 NW3       29.99R
DULLES         MOCLDY    70  64  81 N3        30.00R
ANDREWS AFB    MOCLDY    71  68  90 CALM      29.98R
FT BELVOIR     MOCLDY    71  69  93 CALM      29.99R
QUANTICO       PTCLDY    76  71  85 SW3       29.99R
COLLEGE PARK*  CLOUDY    70  65  83 CALM      29.99R
LEESBURG*      CLOUDY    70  68  94 CALM      30.01S

$$

MDZ006>007-011-014-221000-
BALTIMORE METRO

CITY           SKY/WX    TMP DP  RH WIND       PRES   REMARKS
BWI AIRPORT    MOCLDY    71  69  93 CALM      29.99R
MD SCIENCE CTR   N/A     77  66  68 MISG      29.99R
MARTIN STATE   CLOUDY    70  70 100 CALM      30.00R
ANNAPOLIS      CLOUDY    75  75 100 CALM      29.98R
FORT MEADE*    CLOUDY    66  64  94 CALM      30.01R

$$

MDZ012-015-019>023-221000-
MARYLAND EASTERN SHORE

CITY           SKY/WX    TMP DP  RH WIND       PRES   REMARKS
OCEAN CITY     CLOUDY    71  70  96 CALM      30.00S
SALISBURY      MOCLDY    74  73  97 CALM      29.99R
BAY BRIDGE AP* CLOUDY    73  70  88 CALM      29.97S
CAMBRIDGE*     MOCLDY    73  72  94 CALM      29.98S
EASTON*        PTCLDY    73  69  87 CALM      30.02R

$$

MDZ017>025-221000-
SOUTHERN MARYLAND

CITY           SKY/WX    TMP DP  RH WIND       PRES   REMARKS
PATUXENT RIVER CLOUDY    74  70  87 W6        29.98R
ST INIGOES     PTCLDY    76  71  85 SW7       29.98R
LEONARDTOWN*   PTCLDY    72  68  88 W6        30.00S

$$

MDZ003>005-221000-
NORTH CENTRAL MARYLAND

CITY           SKY/WX    TMP DP  RH WIND       PRES   REMARKS
FREDERICK*     FOG       68  68 100 CALM      30.03R VSB 1/2
HAGERSTOWN APT CLEAR     68  64  87 CALM      30.00S
WESTMINSTER*   PTCLDY    68  66  94 CALM      30.01S

$$

MDZ501>502-221000-
WESTERN MARYLAND

CITY           SKY/WX    TMP DP  RH WIND       PRES   REMARKS
OAKLAND*       NOT AVBL
CUMBERLAND*    CLOUDY    64  64 100 CALM      30.06R

$$

VAZ025>031-221000-
SHENANDOAH VALLEY

CITY           SKY/WX    TMP DP  RH WIND       PRES   REMARKS
WINCHESTER*    CLOUDY    68  61  77 S6        30.01R
FRONT ROYAL*   MOCLDY    68  63  83 S3        30.01R
LURAY*         PTCLDY    68  64  88 S3        30.03S
NEW MARKET*    CLEAR     64  62  91 CALM      30.03S
STAUNTON*      PTCLDY    64  62  94 CALM      30.08S
WAYNESBORO*    CLEAR     70  64  81 W3        30.08R

$$

WVZ021-048>050-054>055-221000-
EASTERN WEST VIRGINIA PANHANDLE

CITY           SKY/WX    TMP DP  RH WIND       PRES   REMARKS
MARTINSBURG    CLOUDY    67  64  90 CALM      30.00R
PETERSBURG*    MOCLDY    66  64  92 CALM      30.04R

$$

VAZ036>039-050-221000-
CENTRAL FOOTHILLS

CITY           SKY/WX    TMP DP  RH WIND       PRES   REMARKS
CHARLOTTESVILL CLOUDY    71  68  90 S7        30.02R
CULPEPER*      CLEAR     69  69  99 CALM      30.01R FOG
ORANGE*        CLOUDY    68  68 100 S6        30.01S
GORDONSVILLE*  CLOUDY    69  69  99 CALM      30.01R
WARRENTON*     CLEAR     69  65  89 CALM      29.99S FOG

$$

VAZ055>057-221000-
NORTH AND CENTRAL PIEDMONT

CITY           SKY/WX    TMP DP  RH WIND       PRES   REMARKS
FREDERICKSBRG* PTCLDY    73  70  88 CALM      29.99R
STAFFORD*      PTCLDY    68  68 100 S3        30.03S

$$

NCZ024-NYZ072-PAZ021-071-VAZ022-071-221000-
OTHER REGIONAL OBSERVATIONS

CITY           SKY/WX    TMP DP  RH WIND       PRES   REMARKS
NEW YORK CITY  CLEAR     68  57  68 CALM      30.01R
PHILADELPHIA   CLOUDY    70  67  90 CALM      29.99R
PITTSBURGH     MOCLDY    64  61  90 CALM      30.00S
ROANOKE        CLOUDY    68  62  81 NW6       30.10S
RICHMOND       MOCLDY    73  70  90 SW9       30.02R
RALEIGH        CLOUDY    71  70  96 SW5       30.09R

$$

ANZ530>537-221000-
MARINE OBSERVATIONS

STATION/POSITION TIME  TEMP    WIND        PRES
                       AIR SEA DIR/SP/G
                 (UTC) (F)     (DEG/KT/KT) (MB)
THOMAS PT LIGHT  0900   76 77  280/  4/  5   N/A
BALT KEY BRIDGE  0842   75     240/  3/  4 1015.0R
COVE POINT       0842   77     270/  3/  6 1015.7R
LEWISETTA        0842   75 78  240/  9/ 11 1015.1S
SOLOMONS ISLAND  0848          270/  4/  6   N/A
PINEY POINT      0848          280/  7/  9   N/A

$$





USA.gov is the U.S. government's official web portal to all federal, state and local government web resources and services.